User: anonymous   Login
Location: Unspecified
(0.0000°N, 0.0000°E)
Time: 06:05:56
(UTC+00:00)
Language:

CANX 3B (BRITE-ASRA) - Orbit

View from above orbital plane
View from above orbital plane
View from above satellite
View from above satellite

Ground track
Ground track

The orbit data is extracted from the following two-line orbital elements,

1 39091U 13009F   18293.54160001 +.00000018 +00000-0 +21726-4 0  9996
2 39091 098.5062 137.4723 0009502 295.9945 064.0262 14.35087245295814
Epoch (UTC): 20 October 2018 12:59:54
Eccentricity: 0.0009502
inclination: 98.5062°
perigee height: 768 km
apogee height: 781 km
right ascension of ascending node: 137.4723°
argument of perigee: 295.9945°
revolutions per day: 14.35087245
mean anomaly at epoch: 64.0262°
orbit number at epoch: 29581

The dashed part of the orbit path shows where the satellite is in the earth's shadow,  

DLR